Weather History for Boulder City, NV

Change the Weather History Date:

Saturday, June 29, 2013

  Actual Average (KLAS) Record (KLAS)
Temperature  
Mean Temperature 98 °F 90 °F  
Max Temperature 113 °F 103 °F 115 °F (1994)
Min Temperature 82 °F 79 °F 60 °F (1941)
Degree Days  
Heating Degree Days 0 0  
Month to date heating degree days 0  
Since 1 June heating degree days 0  
Since 1 July heating degree days 1950  
Cooling Degree Days 32 26  
Month to date cooling degree days 624  
Year to date cooling degree days 1174  
Since 1 June cooling degree days 624  
Growing Degree Days 48 (Base 50)    
Moisture  
Dew Point 37 °F    
Average Humidity 12    
Maximum Humidity 28    
Minimum Humidity 6    
Precipitation  
Precipitation 0.00 in 0.01 in 0.12 in (1984)
Month to date precipitation 0.07  
Year to date precipitation 2.08  
Snow  
Snow 0.00 in 0.00 in 0.00 in ()
Month to date snowfall 0.0  
Since 1 June snowfall 0.0  
Since 1 July snowfall 0.3  
Snow Depth -    
Sea Level Pressure  
Sea Level Pressure 29.83 in    
Wind  
Wind Speed 5 mph (NNE)    
Max Wind Speed 9 mph    
Max Gust Speed -    
Visibility 10 miles    
Events Thunderstorm    
T = Trace of Precipitation, MM = Missing Value Source: NWS Daily Summary

Daily Weather History Graph

Daily Weather History Graph

Search for Another Location

Airport:

Trip Planner

Search our weather history database for the weather conditions in past years. The results will help you decide how hot, cold, wet, or windy it might be!

Date:

Astronomy

Jun. 29, 2013 Rise Set
Actual Time 5:25 AM PDT 8:00 PM PDT
Civil Twilight 4:55 AM PDT 8:30 PM PDT
Nautical Twilight 4:18 AM PDT 9:07 PM PDT
Astronomical Twilight 3:36 AM PDT 9:49 PM PDT
Moon No Moon Rise 12:27 PM PDT (6/29)
Length of Visible Light 15h 34m
Length of Day
14h 34m
Waning Gibbous, 54% of the Moon is Illuminated
Jun 29
Waning Gibbous
Jun 29
Last Quarter
Jul 8
New
Jul 15
First Quarter
Jul 22
Full

Hourly Weather History & Observations

Time (PDT) Temp. Dew Point Humidity Pressure Visibility Wind Dir Wind Speed Gust Speed Precip Events Conditions
12:15 AM 93.2 °F 35.6 °F 13% 29.85 in 10.0 mi NW 8.1 mph - N/A   Clear
12:35 AM 95.0 °F 33.8 °F 12% 29.85 in 10.0 mi WNW 5.8 mph - N/A   Clear
12:55 AM 93.2 °F 35.6 °F 13% 29.84 in 10.0 mi WNW 4.6 mph - N/A   Clear
1:15 AM 91.4 °F 41.0 °F 17% 29.84 in 10.0 mi Calm Calm - N/A   Clear
1:35 AM 91.4 °F 44.6 °F 20% 29.84 in 10.0 mi Calm Calm - N/A   Clear
1:55 AM 93.2 °F 41.0 °F 16% 29.84 in 10.0 mi NE 3.5 mph - N/A   Clear
2:15 AM 91.4 °F 42.8 °F 18% 29.85 in 10.0 mi ENE 9.2 mph - N/A   Clear
2:35 AM 91.4 °F 42.8 °F 18% 29.85 in 10.0 mi ENE 5.8 mph - N/A   Clear
2:55 AM 89.6 °F 44.6 °F 21% 29.85 in 10.0 mi East 6.9 mph - N/A   Clear
3:15 AM 87.8 °F 44.6 °F 22% 29.85 in 10.0 mi ENE 4.6 mph - N/A   Clear
3:35 AM 86.0 °F 46.4 °F 25% 29.85 in 10.0 mi ENE 4.6 mph - N/A   Clear
3:55 AM 84.2 °F 46.4 °F 27% 29.86 in 10.0 mi NE 4.6 mph - N/A   Clear
4:15 AM 84.2 °F 46.4 °F 27% 29.86 in 10.0 mi NE 6.9 mph - N/A   Clear
4:35 AM 84.2 °F 46.4 °F 27% 29.86 in 10.0 mi NE 5.8 mph - N/A   Clear
4:55 AM 86.0 °F 41.0 °F 20% 29.86 in 10.0 mi Calm Calm - N/A   Clear
5:15 AM 86.0 °F 42.8 °F 22% 29.87 in 10.0 mi ENE 4.6 mph - N/A   Clear
5:35 AM 82.4 °F 46.4 °F 28% 29.87 in 10.0 mi NE 3.5 mph - N/A   Clear
5:55 AM 89.6 °F 37.4 °F 16% 29.87 in 9.0 mi ENE 3.5 mph - N/A   Clear
6:15 AM 86.0 °F 39.2 °F 19% 29.88 in 10.0 mi NNE 4.6 mph - N/A   Clear
6:35 AM 93.2 °F 35.6 °F 13% 29.89 in 10.0 mi NNW 5.8 mph - N/A   Clear
6:55 AM 93.2 °F 37.4 °F 14% 29.88 in 10.0 mi WNW 4.6 mph - N/A   Clear
7:15 AM 93.2 °F 35.6 °F 13% 29.89 in 10.0 mi WSW 3.5 mph - N/A   Clear
7:35 AM 93.2 °F 35.6 °F 13% 29.89 in 10.0 mi Calm Calm - N/A   Clear
7:55 AM 95.0 °F 35.6 °F 12% 29.90 in 10.0 mi SW 3.5 mph - N/A   Clear
8:15 AM 95.0 °F 35.6 °F 12% 29.90 in 10.0 mi Calm Calm - N/A   Clear
8:35 AM 98.6 °F 33.8 °F 10% 29.90 in 10.0 mi SSW 3.5 mph - N/A   Clear
8:55 AM 98.6 °F 35.6 °F 11% 29.90 in 10.0 mi SSW 4.6 mph - N/A   Clear
9:15 AM 100.4 °F 33.8 °F 10% 29.90 in 10.0 mi WSW 6.9 mph - N/A   Clear
9:35 AM 104.0 °F 33.8 °F 9% 29.90 in 10.0 mi NW 5.8 mph - N/A   Clear
9:55 AM 104.0 °F 35.6 °F 9% 29.90 in 10.0 mi East 6.9 mph - N/A   Clear
10:15 AM 104.0 °F 35.6 °F 9% 29.90 in 10.0 mi ENE 4.6 mph - N/A   Clear
10:35 AM 104.0 °F 33.8 °F 9% 29.89 in 10.0 mi NE 4.6 mph - N/A   Clear
10:55 AM 107.6 °F 33.8 °F 8% 29.89 in 10.0 mi North 4.6 mph - N/A   Clear
11:15 AM 107.6 °F 35.6 °F 8% 29.88 in 10.0 mi NNE 4.6 mph - N/A   Clear
11:35 AM 107.6 °F 35.6 °F 8% 29.88 in 10.0 mi East 4.6 mph - N/A   Clear
11:55 AM 109.4 °F 33.8 °F 7% 29.87 in 10.0 mi NW 4.6 mph - N/A   Clear
12:15 PM 109.4 °F 35.6 °F 8% 29.86 in 10.0 mi East 6.9 mph - N/A   Partly Cloudy
12:35 PM 109.4 °F 35.6 °F 8% 29.85 in 10.0 mi North 5.8 mph - N/A   Partly Cloudy
12:55 PM 109.4 °F 33.8 °F 7% 29.85 in 10.0 mi ENE 4.6 mph - N/A Thunderstorm Clear
1:15 PM 111.2 °F 32.0 °F 7% 29.84 in 10.0 mi NNW 5.8 mph - N/A   Clear
1:35 PM 111.2 °F 32.0 °F 7% 29.83 in 10.0 mi Calm Calm - N/A   Clear
1:55 PM 113.0 °F 32.0 °F 6% 29.82 in 10.0 mi Calm Calm - N/A   Clear
2:15 PM 113.0 °F 32.0 °F 6% 29.81 in 10.0 mi WSW 4.6 mph - N/A   Clear
2:35 PM 113.0 °F 32.0 °F 6% 29.80 in 10.0 mi WSW 8.1 mph - N/A   Clear
2:55 PM 113.0 °F 32.0 °F 6% 29.80 in 10.0 mi South 4.6 mph - N/A   Clear
3:15 PM 113.0 °F 32.0 °F 6% 29.79 in 10.0 mi NW 4.6 mph - N/A   Clear
3:35 PM 111.2 °F 32.0 °F 7% 29.78 in 10.0 mi ESE 5.8 mph - N/A   Clear
3:55 PM 113.0 °F 30.2 °F 6% 29.77 in 10.0 mi WSW 4.6 mph - N/A Thunderstorm Clear
4:15 PM 113.0 °F 32.0 °F 6% 29.76 in 10.0 mi NW 5.8 mph - N/A   Clear
4:35 PM 113.0 °F 32.0 °F 6% 29.76 in 10.0 mi ENE 3.5 mph - N/A   Clear
4:55 PM 113.0 °F 32.0 °F 6% 29.75 in 10.0 mi NW 8.1 mph - N/A   Clear
5:15 PM 113.0 °F 32.0 °F 6% 29.75 in 10.0 mi North 4.6 mph - N/A   Clear
5:35 PM 113.0 °F 32.0 °F 6% 29.74 in 10.0 mi NNE 4.6 mph - N/A   Clear
5:55 PM 113.0 °F 32.0 °F 6% 29.74 in 10.0 mi Calm Calm - N/A   Clear
6:15 PM 113.0 °F 32.0 °F 6% 29.74 in 10.0 mi SW 4.6 mph - N/A   Clear
6:35 PM 113.0 °F 32.0 °F 6% 29.74 in 10.0 mi East 6.9 mph - N/A   Clear
6:55 PM 109.4 °F 32.0 °F 7% 29.74 in 10.0 mi South 8.1 mph - N/A   Clear
7:15 PM 111.2 °F 32.0 °F 7% 29.74 in 10.0 mi East 3.5 mph - N/A   Clear
7:35 PM 109.4 °F 32.0 °F 7% 29.74 in 10.0 mi ENE 5.8 mph - N/A   Clear
7:55 PM 109.4 °F 32.0 °F 7% 29.74 in 10.0 mi ESE 4.6 mph - N/A Thunderstorm Clear
8:15 PM 107.6 °F 32.0 °F 7% 29.75 in 10.0 mi SW 6.9 mph - N/A   Clear
8:35 PM 105.8 °F 32.0 °F 8% 29.75 in 10.0 mi South 4.6 mph - N/A   Clear
8:55 PM 104.0 °F 35.6 °F 9% 29.76 in 10.0 mi North 4.6 mph - N/A   Clear
9:15 PM 102.2 °F 37.4 °F 11% 29.77 in 10.0 mi Calm Calm - N/A   Clear
9:35 PM 100.4 °F 37.4 °F 11% 29.77 in 10.0 mi Calm Calm - N/A   Clear
9:55 PM 96.8 °F 42.8 °F 16% 29.78 in 10.0 mi Calm Calm - N/A   Clear
10:15 PM 93.2 °F 48.2 °F 21% 29.78 in 10.0 mi NNE 3.5 mph - N/A   Clear
10:35 PM 93.2 °F 46.4 °F 20% 29.78 in 10.0 mi Calm Calm - N/A   Clear
10:55 PM 96.8 °F 37.4 °F 13% 29.78 in 10.0 mi Calm Calm - N/A   Clear
11:15 PM 95.0 °F 41.0 °F 15% 29.78 in 10.0 mi Calm Calm - N/A Thunderstorm Clear
11:35 PM 95.0 °F 37.4 °F 13% 29.79 in 10.0 mi Calm Calm - N/A   Clear